Location: Ahstedt
(52.2048°N, 10.1060°E)
Time: 20:51:37
(UTC+00:00)

Cosmos 1844 Rocket - Pass Details

Date: 18 January 2026
Orbit: 822 x 845 km, 71.0° (Epoch: 16 February)

Event Time Altitude Azimuth Distance (km) Brightness Sun altitude
Exits shadow 05:21:07 15° 330° (NNW) 2,154 4.4 -17.4°
Maximum altitude 05:21:48 15° 338° (NNW) 2,138 4.5 -17.3°
Drops below altitude 10° 05:24:59 10° 13° (NNE) 2,478 5.1 -16.8°
Sets 05:28:38 0° 36° (NE) 3,416 6.2 -16.3°
